Regional Weather Roundup
Issued by NWS Nashville, TN

Home | Current Version | Previous Version | Text Only | Print | Product List | Glossary On
Versions: 1 2 3 4 5 6 7 8 9 10 11 12 13 14 15 16 17 18 19 20 21 22 23 24 25 26 27
000
ASUS44 KOHX 161510
RWROHX
MIDDLE TENNESSEE HOURLY WEATHER ROUNDUP
NATIONAL WEATHER SERVICE NASHVILLE TN
900 AM CST SAT DEC 16 2017

NOTE: "FAIR" INDICATES FEW OR NO CLOUDS BELOW 12,000 FEET WITH
NO SIGNIFICANT WEATHER AND/OR OBSTRUCTIONS TO VISIBILITY.

* THESE REPORTS ARE NOT UNDER NWS QUALITY CONTROL AND MAY NOT
  REPORT WEATHER SUCH AS PRECIPITATION AND FOG.


TNZ005>011-023>034-057-059-062>066-078-080-161600
...NORTHERN MIDDLE TENNESSEE...

CITY           SKY/WX    TMP DP  RH WIND       PRES   REMARKS
CLARKSVILLE    SUNNY     38  26  62 SW14      30.21R WCI  30
CROSSVILLE     CLOUDY    33  24  69 VRB3      30.23R
GALLATIN       SUNNY     36  27  69 SW5       30.28R WCI  32
DICKSON          N/A     34  25  70 S12       30.21S WCI  25
NASHVILLE      CLOUDY    38  26  62 SW12      30.26R WCI  30
PORTLAND       SUNNY     36  28  75 S14       30.21R WCI  27
SMYRNA         CLOUDY    35  27  72 S9        30.27R WCI  28
SPARTA         SUNNY     34  28  80 S8        30.25R WCI  27
SPRINGFIELD    SUNNY     39  28  65 SW13      30.20R WCI  32
WEST NASHVILLE SUNNY     37  28  70 S7        30.23R WCI  32
$$
TNZ056-058-060-061-075>077-079-093>097-161600
...SOUTHERN MIDDLE TENNESSEE...

CITY           SKY/WX    TMP DP  RH WIND       PRES   REMARKS
COLUMBIA       SUNNY     37  28  70 SW7       30.26R WCI  32
FAYETTEVILLE   SUNNY     34  27  75 S6        30.28R WCI  29
MCMINNVILLE    SUNNY     36  28  75 SW5G12    30.27R WCI  32
MURFREESBORO   CLOUDY    35  26  70 S8        30.27R WCI  28
PULASKI        SUNNY     32  28  86 CALM      30.29R
SHELBYVILLE    SUNNY     36  28  75 S8        30.28R WCI  29
TULLAHOMA      SUNNY     34  27  75 S6        30.27R WCI  29
WINCHESTER     SUNNY     32  27  80 E6        30.29R WCI  26
$$


...KEY TO REMARKS...
VSB - VISIBILITY IN MILES
WCI - WIND CHILL INDEX
HX  - HEAT INDEX





USA.gov is the U.S. government's official web portal to all federal, state and local government web resources and services.